RH
72 77 82 83 83 80 80 80 81 83 84 84 82 81 83 80 61 60 61 65 76 78 82 81 81 80 77 76 76 77 74 76 78
75 79 82 80 81 81 81 79 81 83 83 84 84 85 90 63 68 69 64 68 74 76 80 82 81 78 78 76 76 77 77 74 76
80 80 80 80 82 82 84 84 83 84 83 84 84 88 86 61 62 68 72 80 74 75 77 79 80 80 79 78 76 74 72 74 76
84 82 79 79 81 84 86 85 87 87 86 83 85 82 81 64 62 59 75 80 78 81 79 79 78 78 79 78 78 77 74 76 74
87 83 86 82 82 84 85 85 85 86 84 84 87 85 69 65 65 61 68 79 72 75 80 83 77 79 82 83 82 82 83 81 78
70 92 91 86 84 83 81 79 81 84 84 83 84 67 52 54 65 72 85 80 76 75 80 83 81 79 80 83 84 84 82 79 76
62 81 90 85 83 82 76 78 78 71 62 64 71 51 51 58 70 83 86 79 79 79 78 82 82 81 82 80 84 83 82 82 82
47 52 54 61 74 60 62 61 62 64 62 65 62 54 52 54 61 83 88 79 78 80 80 81 81 79 78 79 83 81 81 80 80
60 68 75 76 66 62 58 58 61 60 62 64 64 63 57 55 58 75 90 82 75 74 76 79 80 74 77 79 81 82 81 80 80
57 66 68 75 76 60 61 54 55 59 56 63 63 62 62 59 60 66 84 85 79 75 72 73 78 81 79 79 78 80 80 79 79
57 60 66 66 68 62 61 61 57 55 53 51 50 55 57 55 61 64 71 81 80 77 75 74 72 71 77 81 81 79 76 77 78
54 56 56 60 64 67 64 60 57 61 53 52 49 50 50 53 54 60 64 68 81 75 74 74 74 71 70 76 77 72 77 83 79
53 55 55 54 54 64 63 68 57 53 52 51 55 53 50 50 50 55 60 65 63 71 71 72 72 72 69 68 67 71 70 71 72
51 54 55 52 54 54 58 62 60 57 56 48 51 56 59 54 47 53 58 64 64 58 69 76 75 72 68 68 68 68 68 67 68
51 52 54 54 56 56 57 59 59 58 57 46 48 56 56 56 55 55 55 57 58 60 59 61 63 75 66 69 72 71 70 68 68
49 52 53 56 58 59 56 57 57 60 59 57 57 60 58 55 55 56 56 56 56 57 59 60 62 59 70 76 80 77 73 70 68
44 50 54 56 60 60 62 65 63 59 62 65 62 64 63 58 56 59 55 55 58 57 55 59 60 64 66 78 79 80 78 73 70
45 46 52 55 59 63 62 65 69 69 64 65 66 66 82 62 61 57 58 54 55 55 58 54 56 60 68 71 76 78 78 78 78
42 41 43 52 56 58 60 58 64 64 72 66 62 67 72 83 70 60 61 55 52 56 56 57 60 61 65 70 71 74 75 76 79
32 35 33 40 50 52 55 57 58 59 61 71 74 70 72 69 76 78 69 60 57 54 55 66 63 58 60 59 65 67 71 75 77
Wind_Speed
14 12 16 15 16 18 17 14 14 13 13 14 11 9 9 6 7 10 10 11 12 14 15 15 16 16 16 15 14 14 15 15 16
13 15 15 15 17 19 18 16 14 14 14 14 13 13 12 7 8 9 9 10 12 13 14 15 14 14 14 14 13 14 15 14 15
14 16 17 20 21 20 18 15 14 14 16 16 14 12 11 8 10 10 8 8 11 11 12 13 14 14 14 13 13 13 12 13 13
16 16 15 15 15 14 13 13 15 17 16 13 11 10 9 9 9 10 6 7 10 11 11 12 13 13 13 12 12 11 11 11 11
15 12 13 15 13 13 13 14 15 15 15 15 12 8 11 13 10 9 8 8 6 11 10 13 13 13 10 10 9 10 12 13 11
12 11 13 13 12 12 12 11 8 10 11 15 14 10 8 11 9 8 12 12 11 8 10 14 10 9 8 8 8 11 12 10 10
7 7 9 7 6 8 10 9 13 9 8 7 10 6 10 9 9 8 15 15 16 13 10 10 9 7 7 9 9 13 11 10 9
3 4 4 5 8 4 7 8 8 10 8 8 7 8 8 6 7 12 19 20 18 16 15 12 10 9 10 10 9 11 10 9 8
9 6 6 7 4 6 6 5 8 9 11 9 9 9 8 5 5 9 16 18 20 21 20 17 10 10 8 8 11 9 11 8 7
6 6 6 6 7 6 5 6 6 6 7 6 7 7 7 8 4 4 13 14 17 19 19 20 20 15 14 9 10 10 8 6 6
7 6 6 7 7 6 7 6 6 6 5 5 7 6 5 7 7 4 5 11 15 18 18 18 19 18 19 23 15 9 7 5 5
8 6 7 6 6 8 5 4 4 4 4 5 6 5 6 6 6 5 4 4 11 15 16 17 17 17 17 18 16 18 21 13 8
9 7 7 7 6 6 5 6 3 4 5 5 3 4 5 5 5 5 5 4 4 10 14 15 16 17 17 17 17 17 18 17 17
9 8 8 8 6 6 6 5 5 5 4 4 3 3 4 4 5 5 5 5 5 5 8 10 13 15 17 18 19 19 18 18 18
10 9 10 9 7 8 7 8 6 6 6 5 3 2 2 4 5 6 6 7 8 7 8 6 6 11 17 20 21 20 19 19 18
12 9 10 9 9 10 10 8 6 7 8 4 4 5 4 5 5 6 6 7 7 7 7 6 5 5 16 23 25 24 22 20 19
12 11 10 11 8 11 12 11 6 6 8 5 5 1 4 4 5 5 6 9 6 7 7 7 8 7 8 18 25 25 24 22 21
12 12 11 10 9 8 10 10 11 6 7 10 5 2 3 6 3 3 6 8 6 8 9 9 7 10 10 13 18 25 24 23 23
11 11 11 11 8 10 9 9 8 8 7 3 7 7 6 4 3 1 9 8 9 8 8 8 10 11 10 15 22 24 23 23 23
10 10 11 10 8 9 11 11 11 8 7 7 6 5 5 7 3 4 8 7 9 8 6 7 8 11 10 9 16 23 23 24 25
Wind_Direction
57 62 69 53 57 48 36 43 61 60 63 67 53 30 347 323 86 84 71 76 80 78 81 84 88 89 86 84 83 83 77 73 70
61 57 58 57 54 52 43 50 55 54 57 56 40 18 350 57 69 80 81 89 83 78 82 85 83 88 88 81 75 75 74 71 72
67 63 49 42 40 40 42 46 51 60 56 47 33 21 2 67 69 70 73 55 82 85 83 84 84 82 79 78 73 70 73 73 71
62 62 63 58 57 61 63 70 62 57 51 41 22 13 22 56 52 63 51 67 88 72 75 76 84 85 83 82 85 84 78 75 69
37 62 53 66 55 56 65 67 67 63 52 28 357 341 42 49 37 49 35 52 97 110 81 67 69 78 80 79 76 77 67 65 68
69 47 48 55 65 60 54 60 71 74 64 27 354 40 51 52 47 26 25 48 57 90 108 100 80 69 73 86 95 84 71 65 62
99 101 94 86 89 93 66 29 64 42 52 34 4 48 64 61 50 24 31 49 54 59 76 85 82 57 65 70 78 78 71 67 65
32 64 50 66 34 42 68 58 51 56 51 52 36 35 57 68 64 24 28 50 51 50 48 51 71 75 76 86 81 80 74 64 59
30 32 17 9 68 44 46 79 72 62 55 44 52 41 42 41 71 50 26 48 52 46 46 42 37 47 50 87 84 75 71 56 52
35 36 32 8 5 42 42 54 61 77 66 80 60 51 41 51 44 62 48 37 52 50 47 44 47 39 35 36 69 60 58 54 49
34 31 32 26 9 19 34 33 41 50 38 55 69 60 50 48 43 44 63 55 52 51 45 45 44 46 45 43 38 35 34 29 28
34 34 30 29 25 357 3 50 56 77 62 49 34 40 58 34 39 37 41 27 72 56 46 44 43 43 45 49 36 31 33 21 355
36 36 29 15 30 11 13 351 44 8 28 21 22 31 39 44 33 55 37 26 3 74 51 47 42 40 40 37 40 36 25 22 19
32 33 25 21 24 24 17 19 30 25 11 354 2 53 45 28 53 44 76 71 40 30 66 81 58 44 42 36 34 30 26 15 10
21 25 23 24 30 25 17 15 23 20 358 334 7 37 66 66 49 60 67 47 41 45 41 38 66 63 47 37 31 26 20 13 8
25 23 23 17 29 25 20 1 21 32 356 352 330 97 96 47 63 70 62 59 70 54 41 42 30 33 53 47 30 23 17 13 10
32 25 27 23 24 28 24 22 351 42 23 359 297 135 141 51 87 79 61 37 34 32 44 45 38 26 50 47 28 20 16 12 9
30 32 31 31 29 29 26 21 24 4 32 36 356 336 360 331 124 100 79 39 16 5 11 28 39 36 55 42 21 16 14 11 7
31 30 36 38 35 33 27 26 32 19 30 32 15 40 24 357 321 36 66 20 28 4 4 11 43 40 33 43 18 9 8 5 2
37 33 34 37 32 34 33 33 34 32 36 44 12 17 54 27 339 312 355 359 1 11 334 43 37 37 30 23 10 2 6 4 356